Time,TemperatureF,DewpointF,PressureIn,WindDirection,WindDirectionDegrees,WindSpeedMPH,WindSpeedGustMPH,Humidity,HourlyPrecipIn,Conditions,Clouds,dailyrainin,SolarRadiationWatts/m^2,SoftwareType,DateUTC
2013-02-07 00:01:00,40.0,39.0,-100.00,South,174,3.0,7.0,96,-99.99,,,0.02,0.000000,,2013-02-07 08:01:00,
2013-02-07 00:11:00,40.0,39.0,-100.00,South,174,3.0,7.0,96,-99.99,,,0.02,0.000000,,2013-02-07 08:11:00,
2013-02-07 00:42:00,40.0,39.0,-100.00,South,174,2.0,5.0,96,-99.99,,,0.02,0.000000,,2013-02-07 08:42:00,
2013-02-07 00:52:00,40.0,39.0,-100.00,South,174,2.0,5.0,96,-99.99,,,0.02,0.000000,,2013-02-07 08:52:00,
2013-02-07 01:01:00,40.0,39.0,-100.00,South,174,2.0,5.0,96,-99.99,,,0.02,0.000000,,2013-02-07 09:01:00,
2013-02-07 01:11:00,40.0,39.0,-100.00,South,174,2.0,5.0,96,-99.99,,,0.02,0.000000,,2013-02-07 09:11:00,
2013-02-07 01:41:00,41.0,40.0,-100.00,South,178,3.0,11.0,97,-99.99,,,0.02,0.000000,,2013-02-07 09:41:00,
2013-02-07 01:52:00,41.0,40.0,-100.00,South,178,3.0,11.0,97,-99.99,,,0.02,0.000000,,2013-02-07 09:52:00,
2013-02-07 02:01:00,41.0,40.0,-100.00,South,178,3.0,11.0,97,-99.99,,,0.02,0.000000,,2013-02-07 10:01:00,
2013-02-07 02:11:00,41.0,40.0,-100.00,South,178,3.0,11.0,97,-99.99,,,0.02,0.000000,,2013-02-07 10:11:00,
2013-02-07 02:41:00,41.0,41.0,-100.00,South,190,2.0,9.0,96,-99.99,,,-99.99,0.000000,,2013-02-07 10:41:00,
2013-02-07 02:52:00,41.0,41.0,-100.00,South,190,2.0,9.0,96,-99.99,,,-99.99,0.000000,,2013-02-07 10:52:00,
2013-02-07 03:01:00,41.0,41.0,-100.00,South,190,2.0,9.0,96,-99.99,,,-99.99,0.000000,,2013-02-07 11:01:00,
2013-02-07 03:11:00,41.0,41.0,-100.00,South,190,2.0,9.0,96,-99.99,,,-99.99,0.000000,,2013-02-07 11:11:00,
2013-02-07 03:44:00,40.0,39.0,-100.00,South,181,1.0,3.0,96,-99.99,,,0.02,0.000000,,2013-02-07 11:44:00,
2013-02-07 03:52:00,40.0,39.0,-100.00,South,181,1.0,3.0,96,-99.99,,,0.02,0.000000,,2013-02-07 11:52:00,
2013-02-07 04:01:00,40.0,39.0,-100.00,South,181,1.0,3.0,96,-99.99,,,0.02,0.000000,,2013-02-07 12:01:00,
2013-02-07 04:11:00,40.0,39.0,-100.00,South,181,1.0,3.0,96,-99.99,,,0.02,0.000000,,2013-02-07 12:11:00,
2013-02-07 04:42:00,39.0,38.0,-100.00,ESE,115,0.0,1.0,97,-99.99,,,0.02,0.000000,,2013-02-07 12:42:00,
2013-02-07 04:53:00,39.0,38.0,-100.00,ESE,115,0.0,1.0,97,-99.99,,,0.02,0.000000,,2013-02-07 12:53:00,
2013-02-07 05:02:00,39.0,38.0,-100.00,ESE,115,0.0,1.0,97,-99.99,,,0.02,0.000000,,2013-02-07 13:02:00,
2013-02-07 05:11:00,39.0,38.0,-100.00,ESE,115,0.0,1.0,97,-99.99,,,0.02,0.000000,,2013-02-07 13:11:00,
2013-02-07 05:32:00,38.0,37.0,-100.00,WNW,299,0.0,1.0,97,-99.99,,,0.02,0.000000,,2013-02-07 13:32:00,
2013-02-07 05:42:00,38.0,37.0,-100.00,WNW,299,0.0,1.0,97,-99.99,,,0.02,0.000000,,2013-02-07 13:42:00,
2013-02-07 05:52:00,38.0,37.0,-100.00,WNW,299,0.0,1.0,97,-99.99,,,0.02,0.000000,,2013-02-07 13:52:00,
2013-02-07 06:01:00,38.0,37.0,-100.00,WNW,299,0.0,1.0,97,-99.99,,,0.02,0.000000,,2013-02-07 14:01:00,
2013-02-07 06:11:00,38.0,37.0,-100.00,WNW,299,0.0,1.0,97,-99.99,,,0.02,0.000000,,2013-02-07 14:11:00,
2013-02-07 06:41:00,38.0,38.0,-100.00,South,171,2.0,7.0,98,-99.99,,,0.02,0.000000,,2013-02-07 14:41:00,
2013-02-07 06:52:00,38.0,38.0,-100.00,South,171,2.0,7.0,98,-99.99,,,0.02,0.000000,,2013-02-07 14:52:00,
2013-02-07 07:01:00,38.0,38.0,-100.00,South,171,2.0,7.0,98,-99.99,,,0.02,0.000000,,2013-02-07 15:01:00,
2013-02-07 07:11:00,38.0,38.0,-100.00,South,171,2.0,7.0,98,-99.99,,,0.02,0.000000,,2013-02-07 15:11:00,
2013-02-07 07:42:00,39.0,38.0,-100.00,SSE,154,0.0,3.0,97,-99.99,,,0.02,0.460000,,2013-02-07 15:42:00,
2013-02-07 07:52:00,39.0,38.0,-100.00,SSE,154,0.0,3.0,97,-99.99,,,0.02,0.460000,,2013-02-07 15:52:00,
2013-02-07 08:01:00,39.0,38.0,-100.00,SSE,154,0.0,3.0,97,-99.99,,,0.02,0.460000,,2013-02-07 16:01:00,
2013-02-07 08:11:00,39.0,38.0,-100.00,SSE,154,0.0,3.0,97,-99.99,,,0.02,0.460000,,2013-02-07 16:11:00,
2013-02-07 08:32:00,40.0,39.0,-100.00,South,186,2.0,6.0,97,-99.99,,,0.02,7.900000,,2013-02-07 16:32:00,
2013-02-07 08:41:00,40.0,39.0,-100.00,South,186,2.0,6.0,97,-99.99,,,0.02,7.900000,,2013-02-07 16:41:00,
2013-02-07 08:52:00,40.0,39.0,-100.00,South,186,2.0,6.0,97,-99.99,,,0.02,7.900000,,2013-02-07 16:52:00,
2013-02-07 09:01:00,40.0,39.0,-100.00,South,186,2.0,6.0,97,-99.99,,,0.02,7.900000,,2013-02-07 17:01:00,
2013-02-07 09:11:00,40.0,39.0,-100.00,South,186,2.0,6.0,97,-99.99,,,0.02,7.900000,,2013-02-07 17:11:00,
2013-02-07 09:42:00,41.0,40.0,-100.00,SSE,152,2.0,6.0,96,-99.99,,,0.02,9.650000,,2013-02-07 17:42:00,
2013-02-07 09:52:00,41.0,40.0,-100.00,SSE,152,2.0,6.0,96,-99.99,,,0.02,9.650000,,2013-02-07 17:52:00,
2013-02-07 10:01:00,41.0,40.0,-100.00,SSE,152,2.0,6.0,96,-99.99,,,0.02,9.650000,,2013-02-07 18:01:00,
2013-02-07 10:11:00,41.0,40.0,-100.00,SSE,152,2.0,6.0,96,-99.99,,,0.02,9.650000,,2013-02-07 18:11:00,
2013-02-07 10:41:00,40.0,39.0,-100.00,SW,214,5.0,19.0,96,-99.99,,,0.03,20.690001,,2013-02-07 18:41:00,
2013-02-07 10:52:00,40.0,39.0,-100.00,SW,214,5.0,19.0,96,-99.99,,,0.03,20.690001,,2013-02-07 18:52:00,
2013-02-07 11:01:00,40.0,39.0,-100.00,SW,214,5.0,19.0,96,-99.99,,,0.03,20.690001,,2013-02-07 19:01:00,
2013-02-07 11:11:00,40.0,39.0,-100.00,SW,214,5.0,19.0,96,-99.99,,,0.03,20.690001,,2013-02-07 19:11:00,
2013-02-07 11:41:00,39.0,38.0,-100.00,SSE,149,2.0,6.0,96,-99.99,,,0.04,134.119995,,2013-02-07 19:41:00,
2013-02-07 11:52:00,39.0,38.0,-100.00,SSE,149,2.0,6.0,96,-99.99,,,0.04,134.119995,,2013-02-07 19:52:00,
2013-02-07 12:01:00,39.0,38.0,-100.00,SSE,149,2.0,6.0,96,-99.99,,,0.04,134.119995,,2013-02-07 20:01:00,
2013-02-07 12:11:00,39.0,38.0,-100.00,SSE,149,2.0,6.0,96,-99.99,,,0.04,134.119995,,2013-02-07 20:11:00,
2013-02-07 12:31:00,40.0,39.0,-100.00,South,177,4.0,9.0,96,-99.99,,,0.04,183.740005,,2013-02-07 20:31:00,
2013-02-07 12:41:00,40.0,39.0,-100.00,South,177,4.0,9.0,96,-99.99,,,0.04,183.740005,,2013-02-07 20:41:00,
2013-02-07 12:52:00,40.0,39.0,-100.00,South,177,4.0,9.0,96,-99.99,,,0.04,183.740005,,2013-02-07 20:52:00,
2013-02-07 13:01:00,40.0,39.0,-100.00,South,177,4.0,9.0,96,-99.99,,,0.04,183.740005,,2013-02-07 21:01:00,
2013-02-07 13:11:00,40.0,39.0,-100.00,South,177,4.0,9.0,96,-99.99,,,0.04,183.740005,,2013-02-07 21:11:00,
2013-02-07 13:42:00,41.0,40.0,-100.00,SSE,152,3.0,7.0,96,-99.99,,,0.04,147.369995,,2013-02-07 21:42:00,
2013-02-07 13:52:00,41.0,40.0,-100.00,SSE,152,3.0,7.0,96,-99.99,,,0.04,147.369995,,2013-02-07 21:52:00,
2013-02-07 14:01:00,41.0,40.0,-100.00,SSE,152,3.0,7.0,96,-99.99,,,0.04,147.369995,,2013-02-07 22:01:00,
2013-02-07 14:11:00,41.0,40.0,-100.00,SSE,152,3.0,7.0,96,-99.99,,,0.04,147.369995,,2013-02-07 22:11:00,
2013-02-07 14:42:00,41.0,40.0,-100.00,SE,138,2.0,7.0,96,-99.99,,,0.04,206.520004,,2013-02-07 22:42:00,
2013-02-07 14:52:00,41.0,40.0,-100.00,SE,138,2.0,7.0,96,-99.99,,,0.04,206.520004,,2013-02-07 22:52:00,
2013-02-07 15:01:00,41.0,40.0,-100.00,SE,138,2.0,7.0,96,-99.99,,,0.04,206.520004,,2013-02-07 23:01:00,
2013-02-07 15:11:00,41.0,40.0,-100.00,SE,138,2.0,7.0,96,-99.99,,,0.04,206.520004,,2013-02-07 23:11:00,
2013-02-07 15:41:00,41.0,41.0,-100.00,East,85,2.0,5.0,96,-99.99,,,0.04,55.439999,,2013-02-07 23:41:00,
2013-02-07 15:52:00,41.0,41.0,-100.00,East,85,2.0,5.0,96,-99.99,,,0.04,55.439999,,2013-02-07 23:52:00,
2013-02-07 16:01:00,41.0,41.0,-100.00,East,85,2.0,5.0,96,-99.99,,,0.04,55.439999,,2013-02-08 00:01:00,
2013-02-07 16:11:00,41.0,41.0,-100.00,East,85,2.0,5.0,96,-99.99,,,0.04,55.439999,,2013-02-08 00:11:00,
2013-02-07 16:41:00,42.0,41.0,-100.00,SSE,154,1.0,4.0,97,-99.99,,,0.04,73.680000,,2013-02-08 00:41:00,
2013-02-07 16:52:00,42.0,41.0,-100.00,SSE,154,1.0,4.0,97,-99.99,,,0.04,73.680000,,2013-02-08 00:52:00,
2013-02-07 17:01:00,42.0,41.0,-100.00,SSE,154,1.0,4.0,97,-99.99,,,0.04,73.680000,,2013-02-08 01:01:00,
2013-02-07 17:11:00,42.0,41.0,-100.00,SSE,154,1.0,4.0,97,-99.99,,,0.04,73.680000,,2013-02-08 01:11:00,
2013-02-07 17:41:00,42.0,41.0,-100.00,SSW,192,1.0,2.0,97,-99.99,,,0.04,45.669998,,2013-02-08 01:41:00,
2013-02-07 17:52:00,42.0,41.0,-100.00,SSW,192,1.0,2.0,97,-99.99,,,0.04,45.669998,,2013-02-08 01:52:00,
2013-02-07 18:01:00,42.0,41.0,-100.00,SSW,192,1.0,2.0,97,-99.99,,,0.04,45.669998,,2013-02-08 02:01:00,
2013-02-07 18:11:00,42.0,41.0,-100.00,SSW,192,1.0,2.0,97,-99.99,,,0.04,45.669998,,2013-02-08 02:11:00,
2013-02-07 18:42:00,39.0,38.0,-100.00,ENE,73,0.0,1.0,97,-99.99,,,0.04,0.000000,,2013-02-08 02:42:00,
2013-02-07 18:52:00,39.0,38.0,-100.00,ENE,73,0.0,1.0,97,-99.99,,,0.04,0.000000,,2013-02-08 02:52:00,
2013-02-07 19:01:00,39.0,38.0,-100.00,ENE,73,0.0,1.0,97,-99.99,,,0.04,0.000000,,2013-02-08 03:01:00,
2013-02-07 19:12:00,39.0,38.0,-100.00,ENE,73,0.0,1.0,97,-99.99,,,0.04,0.000000,,2013-02-08 03:12:00,
2013-02-07 19:32:00,37.0,37.0,-100.00,North,0,0.0,0.0,98,-99.99,,,0.04,0.000000,,2013-02-08 03:32:00,
2013-02-07 19:41:00,37.0,37.0,-100.00,North,0,0.0,0.0,98,-99.99,,,0.04,0.000000,,2013-02-08 03:41:00,
2013-02-07 19:52:00,37.0,37.0,-100.00,North,0,0.0,0.0,98,-99.99,,,0.04,0.000000,,2013-02-08 03:52:00,
2013-02-07 20:01:00,37.0,37.0,-100.00,North,0,0.0,0.0,98,-99.99,,,0.04,0.000000,,2013-02-08 04:01:00,
2013-02-07 20:11:00,37.0,37.0,-100.00,North,0,0.0,0.0,98,-99.99,,,0.04,0.000000,,2013-02-08 04:11:00,
2013-02-07 20:32:00,36.0,36.0,-100.00,ENE,64,0.0,0.0,98,-99.99,,,0.04,0.000000,,2013-02-08 04:32:00,
2013-02-07 20:41:00,36.0,36.0,-100.00,ENE,64,0.0,0.0,98,-99.99,,,0.04,0.000000,,2013-02-08 04:41:00,
2013-02-07 20:52:00,36.0,36.0,-100.00,ENE,64,0.0,0.0,98,-99.99,,,0.04,0.000000,,2013-02-08 04:52:00,
2013-02-07 21:01:00,36.0,36.0,-100.00,ENE,64,0.0,0.0,98,-99.99,,,0.04,0.000000,,2013-02-08 05:01:00,
2013-02-07 21:11:00,36.0,36.0,-100.00,ENE,64,0.0,0.0,98,-99.99,,,0.04,0.000000,,2013-02-08 05:11:00,
2013-02-07 21:31:00,35.0,35.0,-100.00,ENE,58,0.0,1.0,98,-99.99,,,0.03,0.000000,,2013-02-08 05:31:00,
2013-02-07 21:41:00,35.0,35.0,-100.00,ENE,58,0.0,1.0,98,-99.99,,,0.03,0.000000,,2013-02-08 05:41:00,
2013-02-07 21:52:00,35.0,35.0,-100.00,ENE,58,0.0,1.0,98,-99.99,,,0.03,0.000000,,2013-02-08 05:52:00,
2013-02-07 22:01:00,35.0,35.0,-100.00,ENE,58,0.0,1.0,98,-99.99,,,0.03,0.000000,,2013-02-08 06:01:00,
2013-02-07 22:11:00,35.0,35.0,-100.00,ENE,58,0.0,1.0,98,-99.99,,,0.03,0.000000,,2013-02-08 06:11:00,
2013-02-07 22:41:00,37.0,37.0,-100.00,ESE,109,0.0,1.0,99,-99.99,,,0.03,0.000000,,2013-02-08 06:41:00,
2013-02-07 22:52:00,37.0,37.0,-100.00,ESE,109,0.0,1.0,99,-99.99,,,0.03,0.000000,,2013-02-08 06:52:00,
2013-02-07 23:01:00,37.0,37.0,-100.00,ESE,109,0.0,1.0,99,-99.99,,,0.03,0.000000,,2013-02-08 07:01:00,
2013-02-07 23:11:00,37.0,37.0,-100.00,ESE,109,0.0,1.0,99,-99.99,,,0.03,0.000000,,2013-02-08 07:11:00,
2013-02-07 23:31:00,36.0,36.0,-100.00,ENE,63,1.0,2.0,99,-99.99,,,-99.99,0.000000,,2013-02-08 07:31:00,
2013-02-07 23:42:00,36.0,36.0,-100.00,ENE,63,1.0,2.0,99,-99.99,,,-99.99,0.000000,,2013-02-08 07:42:00,
2013-02-07 23:52:00,36.0,36.0,-100.00,ENE,63,1.0,2.0,99,-99.99,,,-99.99,0.000000,,2013-02-08 07:52:00,